ELY362 LOWW-LLBG

Flight info

Callsign ELY362
Flight time 3h 10m
Altitude 33000
Route ARSIN DCT NALOX DCT BABIT DCT NISVA DCT RODIP UN131 CNK/N0446F350 UN131 KULAR UT39 TOMBI DCT IDAKU L35 PIKOG L609 ZUKKO
Aircraft B739/M-SADE2E3FGHILORVWXY/LB1

Departure

Time 2026-04-25 12:09
Airport Vienna International Airport (LOWW)

Arrival

Time 2026-04-25 15:19
Airport Ben Gurion International Airport (LLBG)
Time Latitude Longitude Altitude Speed Heading
2026-04-25 11:38 48.11900 16.56020 608 ft 0 kts 160°
2026-04-25 11:59 48.11910 16.56014 621 ft 4 kts 143°
2026-04-25 11:59 48.11918 16.55987 608 ft 4 kts 97°
2026-04-25 12:00 48.11944 16.55940 608 ft 4 kts 189°
2026-04-25 12:00 48.11968 16.55954 608 ft 4 kts 207°
2026-04-25 12:00 48.11973 16.55958 608 ft 0 kts 206°
2026-04-25 12:03 48.11971 16.55956 617 ft 3 kts 206°
2026-04-25 12:03 48.11925 16.55922 608 ft 12 kts 206°
2026-04-25 12:03 48.11823 16.55848 613 ft 19 kts 205°
2026-04-25 12:04 48.11718 16.55787 613 ft 13 kts 172°
2026-04-25 12:04 48.11661 16.55890 618 ft 14 kts 117°
2026-04-25 12:04 48.11612 16.56038 608 ft 17 kts 116°
2026-04-25 12:04 48.11560 16.56195 609 ft 17 kts 116°
2026-04-25 12:05 48.11512 16.56350 611 ft 16 kts 114°
2026-04-25 12:05 48.11465 16.56498 617 ft 15 kts 116°
2026-04-25 12:05 48.11418 16.56638 621 ft 15 kts 117°
2026-04-25 12:05 48.11372 16.56772 616 ft 14 kts 117°
2026-04-25 12:06 48.11329 16.56901 618 ft 14 kts 115°
2026-04-25 12:06 48.11290 16.57024 616 ft 13 kts 115°
2026-04-25 12:06 48.11249 16.57152 620 ft 16 kts 115°
2026-04-25 12:06 48.11188 16.57334 617 ft 23 kts 117°
2026-04-25 12:07 48.11118 16.57558 608 ft 20 kts 114°
2026-04-25 12:07 48.11041 16.57644 620 ft 15 kts 188°
2026-04-25 12:07 48.10953 16.57578 622 ft 14 kts 209°
2026-04-25 12:07 48.10939 16.57458 608 ft 13 kts 297°
2026-04-25 12:08 48.11004 16.57258 617 ft 46 kts 296°
2026-04-25 12:08 48.11239 16.56541 612 ft 108 kts 296°
2026-04-25 12:08 48.11644 16.55294 612 ft 156 kts 296°
2026-04-25 12:08 48.12179 16.53667 777 ft 182 kts 296°
2026-04-25 12:09 48.12667 16.52028 1639 ft 169 kts 281°
2026-04-25 12:09 48.12422 16.50292 2131 ft 182 kts 232°
2026-04-25 12:09 48.11310 16.49322 2701 ft 191 kts 204°
2026-04-25 12:09 48.10076 16.48562 3212 ft 195 kts 208°
2026-04-25 12:10 48.08824 16.47767 3777 ft 197 kts 207°
2026-04-25 12:10 48.07460 16.47158 4063 ft 220 kts 185°
2026-04-25 12:10 48.05894 16.47464 4256 ft 240 kts 174°
2026-04-25 12:10 48.04179 16.47832 4515 ft 256 kts 175°
2026-04-25 12:11 48.02377 16.48182 4864 ft 270 kts 175°
2026-04-25 12:11 48.00457 16.48544 5275 ft 282 kts 176°
2026-04-25 12:11 47.98514 16.48897 6086 ft 281 kts 176°
2026-04-25 12:11 47.96577 16.48804 6743 ft 278 kts 202°
2026-04-25 12:12 47.94849 16.47543 7413 ft 278 kts 212°
2026-04-25 12:12 47.93127 16.46194 8087 ft 281 kts 211°
2026-04-25 12:12 47.91376 16.44831 8729 ft 286 kts 212°
2026-04-25 12:12 47.89601 16.43452 9408 ft 290 kts 211°
2026-04-25 12:13 47.87645 16.42594 10019 ft 302 kts 184°
2026-04-25 12:13 47.85541 16.43001 10406 ft 320 kts 168°
2026-04-25 12:13 47.83314 16.43874 10582 ft 342 kts 166°
2026-04-25 12:13 47.80961 16.44866 10798 ft 360 kts 166°
2026-04-25 12:14 47.78526 16.45887 11280 ft 367 kts 166°
2026-04-25 12:14 47.76059 16.46901 11911 ft 369 kts 166°
2026-04-25 12:14 47.73569 16.47902 12557 ft 371 kts 166°
2026-04-25 12:14 47.71066 16.48894 13171 ft 374 kts 167°
2026-04-25 12:15 47.68541 16.49887 13749 ft 377 kts 167°
2026-04-25 12:15 47.66006 16.50993 14275 ft 383 kts 158°
2026-04-25 12:15 47.63787 16.53196 14824 ft 388 kts 135°
2026-04-25 12:15 47.62215 16.56383 15331 ft 392 kts 115°
2026-04-25 12:16 47.61137 16.60109 15849 ft 395 kts 111°
2026-04-25 12:16 47.60079 16.63890 16307 ft 400 kts 112°
2026-04-25 12:16 47.58980 16.67698 16807 ft 403 kts 113°
2026-04-25 12:16 47.57637 16.71357 17223 ft 408 kts 130°
2026-04-25 12:17 47.55508 16.74090 17700 ft 406 kts 152°
2026-04-25 12:17 47.52929 16.75700 18224 ft 402 kts 170°
2026-04-25 12:17 47.50170 16.76201 18678 ft 400 kts 180°
2026-04-25 12:17 47.47381 16.76446 19133 ft 403 kts 180°
2026-04-25 12:18 47.44578 16.76662 19590 ft 405 kts 180°
2026-04-25 12:18 47.41792 16.76880 20043 ft 408 kts 180°
2026-04-25 12:18 47.38944 16.77117 20489 ft 411 kts 180°
2026-04-25 12:18 47.36086 16.77369 20935 ft 413 kts 180°
2026-04-25 12:19 47.31291 16.77813 21634 ft 417 kts 180°
2026-04-25 12:19 47.27402 16.78184 22193 ft 420 kts 180°
2026-04-25 12:19 47.24477 16.78462 22594 ft 423 kts 180°
2026-04-25 12:20 47.21538 16.78742 22982 ft 425 kts 180°
2026-04-25 12:20 47.18614 16.79019 23354 ft 427 kts 180°
2026-04-25 12:20 47.15645 16.79300 23747 ft 429 kts 180°
2026-04-25 12:20 47.12652 16.79584 24086 ft 432 kts 180°
2026-04-25 12:21 47.09643 16.79869 24452 ft 434 kts 180°
2026-04-25 12:21 47.06622 16.80154 24837 ft 436 kts 180°
2026-04-25 12:21 47.03590 16.80441 25209 ft 437 kts 180°
2026-04-25 12:21 47.00549 16.80728 25539 ft 440 kts 180°
2026-04-25 12:22 46.97487 16.81016 25872 ft 442 kts 180°
2026-04-25 12:22 46.94415 16.81304 26211 ft 443 kts 180°
2026-04-25 12:22 46.91372 16.81623 26539 ft 446 kts 176°
2026-04-25 12:22 46.88364 16.82902 26776 ft 458 kts 155°
2026-04-25 12:23 46.85729 16.85556 27090 ft 465 kts 138°
2026-04-25 12:23 46.83690 16.89239 27391 ft 469 kts 123°
2026-04-25 12:23 46.81957 16.93287 27687 ft 472 kts 122°
2026-04-25 12:23 46.80241 16.97392 27938 ft 475 kts 122°
2026-04-25 12:24 46.78524 17.01509 28205 ft 477 kts 122°
2026-04-25 12:24 46.76786 17.05643 28490 ft 478 kts 123°
2026-04-25 12:24 46.75033 17.09767 28773 ft 479 kts 123°
2026-04-25 12:24 46.73287 17.13835 29043 ft 481 kts 123°
2026-04-25 12:25 46.71504 17.17962 29298 ft 482 kts 123°
2026-04-25 12:25 46.69709 17.22099 29580 ft 483 kts 123°
2026-04-25 12:25 46.67910 17.26231 29916 ft 482 kts 123°
2026-04-25 12:25 46.66118 17.30344 30306 ft 480 kts 123°
2026-04-25 12:26 46.64335 17.34432 30696 ft 477 kts 123°
2026-04-25 12:26 46.62552 17.38513 30951 ft 478 kts 123°
2026-04-25 12:26 46.60764 17.42602 31144 ft 480 kts 123°
2026-04-25 12:26 46.58969 17.46699 31437 ft 479 kts 123°
2026-04-25 12:27 46.57206 17.50719 31769 ft 477 kts 123°
2026-04-25 12:27 46.55420 17.54786 32032 ft 477 kts 123°
2026-04-25 12:27 46.53634 17.58846 32261 ft 478 kts 123°
2026-04-25 12:27 46.51842 17.62913 32481 ft 478 kts 123°
2026-04-25 12:28 46.50048 17.66981 32687 ft 479 kts 123°
2026-04-25 12:28 46.48254 17.71040 32961 ft 477 kts 123°
2026-04-25 12:28 46.46460 17.75095 33016 ft 479 kts 123°
2026-04-25 12:29 46.42882 17.83165 33022 ft 478 kts 123°
2026-04-25 12:29 46.39297 17.91230 33038 ft 474 kts 123°
2026-04-25 12:30 46.35726 17.99239 33035 ft 472 kts 123°
2026-04-25 12:30 46.32165 18.07203 33037 ft 471 kts 123°
2026-04-25 12:31 46.28602 18.15148 33048 ft 471 kts 124°
2026-04-25 12:31 46.25049 18.23047 33054 ft 472 kts 124°
2026-04-25 12:32 46.21459 18.31008 33050 ft 474 kts 124°
2026-04-25 12:32 46.17848 18.38994 33050 ft 476 kts 124°
2026-04-25 12:33 46.14216 18.46999 33053 ft 478 kts 124°
2026-04-25 12:33 46.10592 18.54968 33049 ft 479 kts 124°
2026-04-25 12:34 46.06927 18.63003 33049 ft 480 kts 124°
2026-04-25 12:34 46.03249 18.71042 33046 ft 481 kts 124°
2026-04-25 12:35 45.99557 18.79088 33048 ft 481 kts 124°
2026-04-25 12:35 45.95869 18.87111 33048 ft 480 kts 123°
2026-04-25 12:36 45.91997 18.94815 33035 ft 477 kts 135°
2026-04-25 12:36 45.87274 19.01450 33040 ft 474 kts 137°
2026-04-25 12:37 45.82509 19.07973 33040 ft 472 kts 137°
2026-04-25 12:37 45.77784 19.14500 33048 ft 471 kts 136°
2026-04-25 12:38 45.73125 19.20984 33048 ft 470 kts 136°
2026-04-25 12:38 45.68436 19.27511 33046 ft 470 kts 136°
2026-04-25 12:39 45.63740 19.34033 33048 ft 471 kts 136°
2026-04-25 12:39 45.59027 19.40558 33052 ft 473 kts 136°
2026-04-25 12:40 45.54292 19.47095 33051 ft 475 kts 137°
2026-04-25 12:40 45.49566 19.53605 33050 ft 477 kts 136°
2026-04-25 12:41 45.44784 19.60176 33034 ft 478 kts 137°
2026-04-25 12:41 45.39985 19.66753 33022 ft 480 kts 137°
2026-04-25 12:42 45.35172 19.73331 33019 ft 480 kts 137°
2026-04-25 12:42 45.30393 19.79852 33014 ft 479 kts 137°
2026-04-25 12:43 45.25591 19.86386 33015 ft 477 kts 137°
2026-04-25 12:43 45.18422 19.96110 33017 ft 474 kts 137°
2026-04-25 12:44 45.13657 20.02553 33013 ft 473 kts 136°
2026-04-25 12:45 45.06528 20.12165 33019 ft 471 kts 136°
2026-04-25 12:45 44.99433 20.21693 33019 ft 471 kts 136°
2026-04-25 12:46 44.94677 20.28065 33019 ft 471 kts 136°
2026-04-25 12:46 44.89911 20.34433 33021 ft 472 kts 136°
2026-04-25 12:47 44.85135 20.40796 33034 ft 473 kts 136°
2026-04-25 12:47 44.80381 20.47117 33041 ft 473 kts 136°
2026-04-25 12:48 44.75588 20.53477 33050 ft 474 kts 136°
2026-04-25 12:48 44.70785 20.59832 33048 ft 474 kts 136°
2026-04-25 12:49 44.65973 20.66184 33047 ft 474 kts 136°
2026-04-25 12:49 44.61160 20.72524 33049 ft 475 kts 136°
2026-04-25 12:50 44.56374 20.78810 33040 ft 474 kts 136°
2026-04-25 12:50 44.51560 20.85122 33038 ft 474 kts 136°
2026-04-25 12:51 44.46745 20.91418 33047 ft 473 kts 136°
2026-04-25 12:51 44.41933 20.97695 33048 ft 473 kts 136°
2026-04-25 12:52 44.37155 21.03913 33038 ft 472 kts 136°
2026-04-25 12:52 44.32349 21.10150 33045 ft 471 kts 136°
2026-04-25 12:53 44.27546 21.16372 33046 ft 471 kts 136°
2026-04-25 12:53 44.22746 21.22578 33048 ft 471 kts 136°
2026-04-25 12:54 44.17942 21.28773 33049 ft 471 kts 136°
2026-04-25 12:54 44.13164 21.34920 33042 ft 471 kts 136°
2026-04-25 12:55 44.09160 21.40060 33044 ft 471 kts 136°
2026-04-25 12:55 44.03519 21.47284 33050 ft 471 kts 136°
2026-04-25 12:56 43.98690 21.53452 33048 ft 472 kts 136°
2026-04-25 12:56 43.93892 21.59567 33049 ft 471 kts 136°
2026-04-25 12:57 43.89061 21.65711 33036 ft 471 kts 136°
2026-04-25 12:57 43.84232 21.71837 33040 ft 470 kts 136°
2026-04-25 12:58 43.79408 21.77943 33050 ft 469 kts 136°
2026-04-25 12:58 43.74621 21.83990 33039 ft 469 kts 136°
2026-04-25 12:59 43.69803 21.90061 33036 ft 469 kts 136°
2026-04-25 12:59 43.64986 21.96116 33048 ft 468 kts 136°
2026-04-25 13:00 43.61795 22.00120 33052 ft 468 kts 136°
2026-04-25 13:00 43.55377 22.08157 33047 ft 468 kts 136°
2026-04-25 13:01 43.50547 22.14187 33040 ft 468 kts 136°
2026-04-25 13:01 43.45717 22.20204 33050 ft 468 kts 136°
2026-04-25 13:02 43.40883 22.26213 33047 ft 469 kts 136°
2026-04-25 13:02 43.36045 22.32214 33052 ft 468 kts 136°
2026-04-25 13:03 43.31235 22.38168 33048 ft 468 kts 136°
2026-04-25 13:03 43.26393 22.44143 33036 ft 468 kts 136°
2026-04-25 13:04 43.21561 22.50097 33043 ft 466 kts 136°
2026-04-25 13:04 43.16736 22.56031 33049 ft 466 kts 136°
2026-04-25 13:05 43.11944 22.61909 33050 ft 465 kts 136°
2026-04-25 13:05 43.07132 22.67800 33047 ft 464 kts 136°
2026-04-25 13:06 43.02328 22.73669 33040 ft 462 kts 136°
2026-04-25 13:06 42.97537 22.79510 33050 ft 461 kts 136°
2026-04-25 13:07 42.92801 22.85417 33048 ft 460 kts 134°
2026-04-25 13:07 42.88152 22.91336 33039 ft 460 kts 134°
2026-04-25 13:08 42.83478 22.97269 33047 ft 459 kts 134°
2026-04-25 13:08 42.78796 23.03182 33050 ft 459 kts 135°
2026-04-25 13:09 42.74104 23.09084 33051 ft 459 kts 135°
2026-04-25 13:09 42.69437 23.14940 33041 ft 460 kts 135°
2026-04-25 13:10 42.64735 23.20827 33048 ft 460 kts 135°
2026-04-25 13:10 42.60024 23.26714 33047 ft 460 kts 134°
2026-04-25 13:11 42.55308 23.32595 33021 ft 461 kts 134°
2026-04-25 13:11 42.50585 23.38471 33020 ft 460 kts 134°
2026-04-25 13:12 42.45896 23.44291 33018 ft 460 kts 134°
2026-04-25 13:12 42.41944 23.49187 33014 ft 459 kts 134°
2026-04-25 13:13 42.36468 23.55959 33020 ft 458 kts 134°
2026-04-25 13:13 42.31765 23.61763 33022 ft 458 kts 134°
2026-04-25 13:14 42.27063 23.67550 33012 ft 457 kts 134°
2026-04-25 13:14 42.22397 23.73279 33013 ft 456 kts 134°
2026-04-25 13:15 42.17707 23.79029 33008 ft 455 kts 134°
2026-04-25 13:15 42.13023 23.84760 33010 ft 454 kts 134°
2026-04-25 13:16 42.08344 23.90472 33009 ft 453 kts 134°
2026-04-25 13:16 42.03672 23.96163 33007 ft 452 kts 134°
2026-04-25 13:17 41.99038 24.01797 33014 ft 452 kts 135°
2026-04-25 13:17 41.94373 24.07455 33006 ft 452 kts 135°
2026-04-25 13:18 41.89699 24.13115 33009 ft 452 kts 135°
2026-04-25 13:18 41.85025 24.18764 33011 ft 453 kts 135°
2026-04-25 13:19 41.80372 24.24374 33019 ft 453 kts 135°
2026-04-25 13:19 41.77228 24.28157 33009 ft 454 kts 135°
2026-04-25 13:20 41.70958 24.35691 33010 ft 456 kts 135°
2026-04-25 13:20 41.66236 24.41350 33019 ft 456 kts 135°
2026-04-25 13:21 41.61538 24.46967 33004 ft 456 kts 135°
2026-04-25 13:21 41.56813 24.52607 33010 ft 455 kts 135°
2026-04-25 13:22 41.52092 24.58230 33008 ft 454 kts 135°
2026-04-25 13:23 41.45074 24.66571 33002 ft 451 kts 135°
2026-04-25 13:23 41.40388 24.72125 33000 ft 450 kts 135°
2026-04-25 13:24 41.35713 24.77659 33003 ft 449 kts 135°
2026-04-25 13:24 41.31055 24.83168 33001 ft 447 kts 135°
2026-04-25 13:25 41.26415 24.88645 33012 ft 445 kts 135°
2026-04-25 13:25 41.21813 24.94067 33016 ft 446 kts 135°
2026-04-25 13:26 41.17165 24.99532 33010 ft 446 kts 136°
2026-04-25 13:26 41.12511 25.04994 33012 ft 447 kts 136°
2026-04-25 13:27 41.07844 25.10459 33013 ft 448 kts 136°
2026-04-25 13:27 41.03195 25.15894 33011 ft 449 kts 136°
2026-04-25 13:28 40.98503 25.21368 33012 ft 450 kts 136°
2026-04-25 13:28 40.93804 25.26841 33007 ft 450 kts 136°
2026-04-25 13:29 40.89107 25.32298 33009 ft 449 kts 136°
2026-04-25 13:29 40.84445 25.37708 33006 ft 449 kts 136°
2026-04-25 13:30 40.77562 25.46009 32997 ft 444 kts 129°
2026-04-25 13:31 40.71596 25.55289 33002 ft 441 kts 127°
2026-04-25 13:31 40.67662 25.61407 32999 ft 440 kts 128°
2026-04-25 13:32 40.63676 25.67512 33001 ft 439 kts 128°
2026-04-25 13:32 40.59686 25.73588 33000 ft 438 kts 128°
2026-04-25 13:33 40.55701 25.79647 33000 ft 438 kts 128°
2026-04-25 13:33 40.51716 25.85696 33001 ft 437 kts 128°
2026-04-25 13:34 40.47753 25.91680 33000 ft 437 kts 129°
2026-04-25 13:34 40.43741 25.97673 33002 ft 437 kts 129°
2026-04-25 13:35 40.39729 26.03655 32998 ft 436 kts 129°
2026-04-25 13:35 40.35717 26.09634 33002 ft 436 kts 129°
2026-04-25 13:36 40.31732 26.15563 33001 ft 437 kts 129°
2026-04-25 13:36 40.27710 26.21535 33000 ft 437 kts 129°
2026-04-25 13:37 40.23685 26.27503 33001 ft 437 kts 129°
2026-04-25 13:37 40.19654 26.33466 32997 ft 438 kts 129°
2026-04-25 13:38 40.15642 26.39392 32982 ft 438 kts 129°
2026-04-25 13:38 40.11523 26.45265 32984 ft 439 kts 132°
2026-04-25 13:39 40.07150 26.50851 32997 ft 440 kts 134°
2026-04-25 13:39 40.02745 26.56400 32980 ft 440 kts 133°
2026-04-25 13:40 39.98392 26.61938 32985 ft 440 kts 133°
2026-04-25 13:40 39.94023 26.67516 32983 ft 439 kts 133°
2026-04-25 13:41 39.89663 26.73080 32985 ft 438 kts 134°
2026-04-25 13:41 39.85307 26.78625 32983 ft 437 kts 134°
2026-04-25 13:42 39.80959 26.84150 32984 ft 436 kts 134°
2026-04-25 13:42 39.76648 26.89615 32971 ft 435 kts 134°
2026-04-25 13:43 39.72264 26.95041 32974 ft 435 kts 135°
2026-04-25 13:43 39.67864 27.00422 32974 ft 435 kts 135°
2026-04-25 13:44 39.63466 27.05806 32972 ft 434 kts 135°
2026-04-25 13:44 39.59106 27.11148 32971 ft 434 kts 135°
2026-04-25 13:45 39.54713 27.16524 32970 ft 434 kts 135°
2026-04-25 13:45 39.50315 27.21895 32983 ft 435 kts 134°
2026-04-25 13:46 39.46345 27.27776 32972 ft 434 kts 127°
2026-04-25 13:46 39.42608 27.33845 32972 ft 435 kts 128°
2026-04-25 13:47 39.38779 27.39903 32984 ft 435 kts 128°
2026-04-25 13:47 39.34915 27.45936 32986 ft 436 kts 128°
2026-04-25 13:48 39.31036 27.51967 32982 ft 437 kts 128°
2026-04-25 13:48 39.27179 27.57959 32979 ft 437 kts 128°
2026-04-25 13:49 39.23300 27.63977 32979 ft 436 kts 129°
2026-04-25 13:49 39.19421 27.69985 32985 ft 436 kts 129°
2026-04-25 13:50 39.15544 27.75979 32977 ft 435 kts 129°
2026-04-25 13:50 39.11664 27.81969 32976 ft 435 kts 129°
2026-04-25 13:51 39.07813 27.87899 32974 ft 435 kts 129°
2026-04-25 13:51 39.03928 27.93864 32982 ft 435 kts 129°
2026-04-25 13:52 39.00020 27.99853 33056 ft 441 kts 129°
2026-04-25 13:52 38.98039 28.02887 33192 ft 444 kts 130°
2026-04-25 13:52 38.96055 28.05923 33424 ft 443 kts 130°
2026-04-25 13:52 38.94075 28.08949 33724 ft 442 kts 130°
2026-04-25 13:53 38.92125 28.11927 33969 ft 441 kts 130°
2026-04-25 13:53 38.90150 28.14940 34155 ft 442 kts 130°
2026-04-25 13:53 38.88165 28.17964 34311 ft 443 kts 130°
2026-04-25 13:53 38.86178 28.20991 34483 ft 444 kts 130°
2026-04-25 13:54 38.84190 28.24015 34704 ft 443 kts 131°
2026-04-25 13:54 38.82206 28.27030 34894 ft 442 kts 131°
2026-04-25 13:54 38.80219 28.30047 34985 ft 443 kts 131°
2026-04-25 13:55 38.76223 28.36107 34998 ft 445 kts 131°
2026-04-25 13:55 38.72254 28.42113 34984 ft 444 kts 131°
2026-04-25 13:56 38.68268 28.48136 34989 ft 443 kts 131°
2026-04-25 13:56 38.64285 28.54144 34995 ft 442 kts 131°
2026-04-25 13:57 38.60305 28.60135 34988 ft 442 kts 131°
2026-04-25 13:57 38.55909 28.65547 35000 ft 438 kts 146°
2026-04-25 13:58 38.50926 28.69949 34994 ft 439 kts 147°
2026-04-25 13:58 38.45891 28.74363 34992 ft 440 kts 146°
2026-04-25 13:59 38.40856 28.78827 34994 ft 441 kts 146°
2026-04-25 13:59 38.35818 28.83321 34985 ft 443 kts 146°
2026-04-25 14:00 38.31623 28.87062 34992 ft 443 kts 146°
2026-04-25 14:00 38.25744 28.92294 34998 ft 444 kts 146°
2026-04-25 14:01 38.20682 28.96790 34982 ft 444 kts 146°
2026-04-25 14:01 38.15619 29.01277 34990 ft 443 kts 147°
2026-04-25 14:02 38.10592 29.05726 34985 ft 443 kts 147°
2026-04-25 14:02 38.05533 29.10195 34998 ft 443 kts 147°
2026-04-25 14:03 38.00478 29.14654 35007 ft 442 kts 147°
2026-04-25 14:03 37.95426 29.19103 35001 ft 442 kts 148°
2026-04-25 14:04 37.90383 29.23536 35010 ft 441 kts 148°
2026-04-25 14:04 37.86193 29.27213 35008 ft 441 kts 148°
2026-04-25 14:05 37.80340 29.32338 35015 ft 440 kts 148°
2026-04-25 14:05 37.75311 29.36728 35022 ft 439 kts 148°
2026-04-25 14:06 37.71132 29.40373 35013 ft 439 kts 148°
2026-04-25 14:06 37.66105 29.44755 35017 ft 439 kts 148°
2026-04-25 14:07 37.60257 29.49840 35017 ft 439 kts 148°
2026-04-25 14:07 37.56043 29.53500 35017 ft 439 kts 148°
2026-04-25 14:08 37.51046 29.57831 35008 ft 439 kts 148°
2026-04-25 14:08 37.46006 29.62191 35008 ft 440 kts 148°
2026-04-25 14:09 37.40963 29.66551 35007 ft 440 kts 148°
2026-04-25 14:09 37.35910 29.70911 35001 ft 441 kts 148°
2026-04-25 14:10 37.30851 29.75274 35010 ft 441 kts 148°
2026-04-25 14:10 37.25835 29.79607 35012 ft 441 kts 148°
2026-04-25 14:11 37.20782 29.83967 35005 ft 441 kts 148°
2026-04-25 14:11 37.15724 29.88323 35003 ft 441 kts 148°
2026-04-25 14:12 37.10660 29.92675 35003 ft 441 kts 148°
2026-04-25 14:12 37.05625 29.96976 34995 ft 441 kts 148°
2026-04-25 14:13 37.00549 30.01299 34981 ft 441 kts 148°
2026-04-25 14:13 36.95477 30.05615 34999 ft 441 kts 149°
2026-04-25 14:14 36.90403 30.09929 34981 ft 441 kts 149°
2026-04-25 14:14 36.85325 30.14238 34982 ft 441 kts 149°
2026-04-25 14:15 36.80281 30.18515 34969 ft 441 kts 149°
2026-04-25 14:15 36.75198 30.22823 34960 ft 442 kts 149°
2026-04-25 14:16 36.70118 30.27125 34972 ft 442 kts 149°
2026-04-25 14:16 36.65038 30.31431 34973 ft 441 kts 148°
2026-04-25 14:17 36.60040 30.35788 34976 ft 442 kts 148°
2026-04-25 14:17 36.54979 30.40131 34966 ft 442 kts 149°
2026-04-25 14:18 36.49853 30.44322 34979 ft 441 kts 150°
2026-04-25 14:18 36.44734 30.48529 34976 ft 441 kts 149°
2026-04-25 14:19 36.39640 30.52778 34969 ft 441 kts 149°
2026-04-25 14:19 36.34584 30.57012 34974 ft 441 kts 149°
2026-04-25 14:20 36.29497 30.61265 34973 ft 441 kts 149°
2026-04-25 14:20 36.24405 30.65517 34971 ft 441 kts 149°
2026-04-25 14:21 36.19315 30.69759 34980 ft 441 kts 149°
2026-04-25 14:21 36.14213 30.74003 34966 ft 442 kts 149°
2026-04-25 14:22 36.09146 30.78213 34966 ft 442 kts 149°
2026-04-25 14:22 36.04050 30.82452 34960 ft 442 kts 148°
2026-04-25 14:23 35.99170 30.87095 34946 ft 443 kts 144°
2026-04-25 14:23 35.94383 30.91901 34944 ft 443 kts 144°
2026-04-25 14:24 35.89623 30.96656 34939 ft 443 kts 145°
2026-04-25 14:24 35.84816 31.01408 34946 ft 443 kts 145°
2026-04-25 14:25 35.80002 31.06140 34948 ft 443 kts 145°
2026-04-25 14:25 35.75183 31.10865 34944 ft 443 kts 145°
2026-04-25 14:26 35.70395 31.15552 34935 ft 443 kts 145°
2026-04-25 14:26 35.65567 31.20270 34934 ft 443 kts 145°
2026-04-25 14:27 35.60744 31.24978 34934 ft 443 kts 145°
2026-04-25 14:27 35.55922 31.29678 34934 ft 443 kts 145°
2026-04-25 14:28 35.51094 31.34375 34934 ft 443 kts 145°
2026-04-25 14:28 35.46294 31.39038 34944 ft 443 kts 145°
2026-04-25 14:29 35.41458 31.43728 34934 ft 444 kts 145°
2026-04-25 14:29 35.36616 31.48417 34935 ft 443 kts 145°
2026-04-25 14:30 35.31771 31.53102 34926 ft 444 kts 146°
2026-04-25 14:30 35.24531 31.60087 34924 ft 444 kts 146°
2026-04-25 14:31 35.19682 31.64757 34923 ft 444 kts 146°
2026-04-25 14:31 35.14835 31.69420 34927 ft 443 kts 146°
2026-04-25 14:32 35.09987 31.74074 34924 ft 443 kts 146°
2026-04-25 14:32 35.05173 31.78689 34917 ft 443 kts 146°
2026-04-25 14:33 35.00324 31.83329 34917 ft 443 kts 146°
2026-04-25 14:33 34.95472 31.87966 34917 ft 443 kts 146°
2026-04-25 14:34 34.90626 31.92591 34913 ft 442 kts 146°
2026-04-25 14:34 34.85782 31.97206 34919 ft 442 kts 146°
2026-04-25 14:35 34.80965 32.01785 34916 ft 442 kts 147°
2026-04-25 14:35 34.76117 32.06389 34919 ft 442 kts 147°
2026-04-25 14:36 34.71267 32.10991 34916 ft 442 kts 147°
2026-04-25 14:36 34.66417 32.15585 34916 ft 442 kts 147°
2026-04-25 14:37 34.61600 32.20139 34917 ft 442 kts 147°
2026-04-25 14:37 34.56749 32.24718 34916 ft 442 kts 147°
2026-04-25 14:38 34.51894 32.29296 34914 ft 442 kts 147°
2026-04-25 14:38 34.47039 32.33865 34917 ft 442 kts 147°
2026-04-25 14:39 34.42180 32.38429 34919 ft 442 kts 147°
2026-04-25 14:39 34.37352 32.42960 34918 ft 442 kts 147°
2026-04-25 14:40 34.32489 32.47517 34917 ft 442 kts 147°
2026-04-25 14:40 34.27619 32.52075 34911 ft 443 kts 147°
2026-04-25 14:41 34.22741 32.56631 34907 ft 443 kts 147°
2026-04-25 14:41 34.17896 32.61150 34906 ft 443 kts 147°
2026-04-25 14:42 34.13814 32.64955 34910 ft 442 kts 147°
2026-04-25 14:42 34.08145 32.70204 34906 ft 441 kts 150°
2026-04-25 14:43 34.03013 32.74186 34916 ft 438 kts 154°
2026-04-25 14:43 33.97796 32.77973 34903 ft 438 kts 154°
2026-04-25 14:44 33.92623 32.81756 34911 ft 438 kts 154°
2026-04-25 14:44 33.87424 32.85603 34907 ft 439 kts 154°
2026-04-25 14:45 33.82230 32.89461 34909 ft 439 kts 154°
2026-04-25 14:45 33.77030 32.93321 34908 ft 439 kts 154°
2026-04-25 14:46 33.71861 32.97151 34907 ft 440 kts 154°
2026-04-25 14:46 33.66651 33.01004 34907 ft 440 kts 154°
2026-04-25 14:47 33.62322 33.04202 34909 ft 440 kts 154°
2026-04-25 14:47 33.56228 33.08696 34908 ft 440 kts 154°
2026-04-25 14:48 33.51009 33.12540 34907 ft 440 kts 154°
2026-04-25 14:48 33.48422 33.14442 34519 ft 448 kts 154°
2026-04-25 14:48 33.45744 33.16406 33882 ft 451 kts 154°
2026-04-25 14:49 33.43068 33.18371 33125 ft 451 kts 154°
2026-04-25 14:49 33.40393 33.20337 32371 ft 451 kts 154°
2026-04-25 14:49 33.37729 33.22295 31820 ft 446 kts 154°
2026-04-25 14:49 33.35098 33.24227 31254 ft 442 kts 154°
2026-04-25 14:50 33.32492 33.26140 30704 ft 437 kts 154°
2026-04-25 14:50 33.29945 33.28007 30164 ft 433 kts 154°
2026-04-25 14:50 33.27395 33.29873 29625 ft 428 kts 153°
2026-04-25 14:50 33.24867 33.31721 29083 ft 423 kts 153°
2026-04-25 14:51 33.22369 33.33546 28545 ft 419 kts 153°
2026-04-25 14:51 33.19895 33.35351 28015 ft 415 kts 153°
2026-04-25 14:51 33.17444 33.37138 27498 ft 410 kts 153°
2026-04-25 14:51 33.15020 33.38904 26948 ft 407 kts 153°
2026-04-25 14:52 33.12614 33.40657 26438 ft 403 kts 153°
2026-04-25 14:52 33.10228 33.42393 25923 ft 400 kts 153°
2026-04-25 14:52 33.07895 33.44090 25417 ft 396 kts 153°
2026-04-25 14:52 33.06309 33.45244 25068 ft 394 kts 153°
2026-04-25 14:53 33.03224 33.47485 24393 ft 390 kts 152°
2026-04-25 14:53 33.00915 33.49162 23889 ft 387 kts 152°
2026-04-25 14:53 32.98626 33.50824 23401 ft 384 kts 152°
2026-04-25 14:53 32.96354 33.52471 22881 ft 381 kts 152°
2026-04-25 14:54 32.94098 33.54107 22407 ft 378 kts 152°
2026-04-25 14:54 32.91858 33.55729 21912 ft 376 kts 152°
2026-04-25 14:54 32.89632 33.57341 21422 ft 373 kts 152°
2026-04-25 14:54 32.87452 33.58919 20953 ft 371 kts 153°
2026-04-25 14:55 32.85255 33.60508 20475 ft 368 kts 153°
2026-04-25 14:55 32.83089 33.62109 19996 ft 367 kts 149°
2026-04-25 14:55 32.81128 33.64059 19536 ft 368 kts 139°
2026-04-25 14:55 32.79357 33.66248 19067 ft 367 kts 137°
2026-04-25 14:56 32.77610 33.68446 18601 ft 365 kts 137°
2026-04-25 14:56 32.75871 33.70634 18135 ft 363 kts 137°
2026-04-25 14:56 32.74138 33.72800 17668 ft 361 kts 137°
2026-04-25 14:56 32.72409 33.74950 17202 ft 359 kts 137°
2026-04-25 14:57 32.70713 33.77048 16818 ft 355 kts 137°
2026-04-25 14:57 32.69011 33.79150 16388 ft 352 kts 137°
2026-04-25 14:57 32.67317 33.81237 15946 ft 350 kts 137°
2026-04-25 14:57 32.65633 33.83309 15502 ft 348 kts 137°
2026-04-25 14:58 32.63958 33.85369 15058 ft 346 kts 137°
2026-04-25 14:58 32.62287 33.87424 14607 ft 345 kts 137°
2026-04-25 14:58 32.60624 33.89468 14169 ft 344 kts 137°
2026-04-25 14:58 32.58964 33.91506 13700 ft 343 kts 136°
2026-04-25 14:59 32.57311 33.93534 13261 ft 342 kts 136°
2026-04-25 14:59 32.55688 33.95527 12902 ft 338 kts 136°
2026-04-25 14:59 32.54084 33.97526 12665 ft 332 kts 136°
2026-04-25 14:59 32.52497 33.99510 12396 ft 331 kts 136°
2026-04-25 15:00 32.50907 34.01496 12187 ft 333 kts 136°
2026-04-25 15:00 32.49305 34.03496 11947 ft 336 kts 136°
2026-04-25 15:00 32.47695 34.05502 11699 ft 335 kts 136°
2026-04-25 15:00 32.46095 34.07496 11455 ft 334 kts 135°
2026-04-25 15:01 32.44516 34.09460 11222 ft 333 kts 135°
2026-04-25 15:01 32.43050 34.11574 10954 ft 335 kts 120°
2026-04-25 15:01 32.42273 34.14179 10721 ft 338 kts 105°
2026-04-25 15:01 32.41786 34.16905 10456 ft 339 kts 103°
2026-04-25 15:02 32.41330 34.19651 10187 ft 340 kts 103°
2026-04-25 15:02 32.40868 34.22403 9917 ft 342 kts 103°
2026-04-25 15:02 32.40390 34.25157 9645 ft 342 kts 103°
2026-04-25 15:02 32.39899 34.27909 9380 ft 342 kts 104°
2026-04-25 15:03 32.39407 34.30645 9097 ft 338 kts 104°
2026-04-25 15:03 32.38919 34.33346 8909 ft 332 kts 103°
2026-04-25 15:03 32.38439 34.35997 8785 ft 328 kts 104°
2026-04-25 15:03 32.37966 34.38599 8647 ft 329 kts 103°
2026-04-25 15:04 32.37484 34.41256 8528 ft 332 kts 103°
2026-04-25 15:04 32.37001 34.43927 8398 ft 332 kts 103°
2026-04-25 15:04 32.36517 34.46592 8273 ft 331 kts 103°
2026-04-25 15:04 32.36033 34.49253 8122 ft 330 kts 103°
2026-04-25 15:05 32.35446 34.51865 7984 ft 328 kts 116°
2026-04-25 15:05 32.34164 34.54044 7974 ft 319 kts 134°
2026-04-25 15:05 32.32632 34.55945 7979 ft 321 kts 136°
2026-04-25 15:06 32.29469 34.59745 7962 ft 325 kts 136°
2026-04-25 15:06 32.27916 34.61623 7960 ft 323 kts 136°
2026-04-25 15:06 32.26351 34.63531 7978 ft 323 kts 135°
2026-04-25 15:06 32.24794 34.65436 7954 ft 323 kts 135°
2026-04-25 15:07 32.23236 34.67343 7956 ft 322 kts 135°
2026-04-25 15:07 32.21679 34.69248 7957 ft 322 kts 135°
2026-04-25 15:07 32.20123 34.71154 7976 ft 322 kts 135°
2026-04-25 15:07 32.18564 34.73063 7963 ft 324 kts 135°
2026-04-25 15:08 32.17001 34.74976 7962 ft 324 kts 135°
2026-04-25 15:08 32.15512 34.76929 7925 ft 327 kts 125°
2026-04-25 15:08 32.14490 34.79338 7857 ft 330 kts 114°
2026-04-25 15:08 32.13572 34.81836 7721 ft 333 kts 115°
2026-04-25 15:09 32.12624 34.84305 7593 ft 328 kts 116°
2026-04-25 15:09 32.11672 34.86734 7470 ft 324 kts 116°
2026-04-25 15:09 32.09770 34.91539 7232 ft 324 kts 116°
2026-04-25 15:10 32.08816 34.93944 7112 ft 324 kts 116°
2026-04-25 15:10 32.07863 34.96348 6994 ft 323 kts 116°
2026-04-25 15:10 32.05959 35.01145 6740 ft 320 kts 116°
2026-04-25 15:11 32.05044 35.03448 6610 ft 309 kts 116°
2026-04-25 15:11 32.04152 35.05698 6490 ft 297 kts 116°
2026-04-25 15:11 32.03292 35.07868 6390 ft 287 kts 116°
2026-04-25 15:12 32.01650 35.12004 6181 ft 274 kts 116°
2026-04-25 15:12 32.00837 35.14027 6085 ft 272 kts 120°
2026-04-25 15:12 31.99623 35.15681 5962 ft 266 kts 149°
2026-04-25 15:12 31.99103 35.16021 5882 ft 263 kts 160°
2026-04-25 15:13 31.96161 35.16494 5488 ft 252 kts 182°
2026-04-25 15:13 31.92790 35.15860 5017 ft 240 kts 197°
2026-04-25 15:13 31.91255 35.15241 4759 ft 227 kts 211°
2026-04-25 15:14 31.90193 35.13990 4546 ft 211 kts 240°
2026-04-25 15:14 31.89702 35.12440 4313 ft 196 kts 262°
2026-04-25 15:14 31.89660 35.10867 4151 ft 192 kts 270°
2026-04-25 15:14 31.89729 35.09309 3948 ft 189 kts 282°
2026-04-25 15:15 31.90330 35.07972 3771 ft 182 kts 304°
2026-04-25 15:15 31.91010 35.06738 3698 ft 181 kts 300°
2026-04-25 15:15 31.91680 35.05434 3433 ft 189 kts 300°
2026-04-25 15:15 31.92358 35.04118 3157 ft 190 kts 300°
2026-04-25 15:16 31.93037 35.02806 2898 ft 186 kts 300°
2026-04-25 15:16 31.93705 35.01523 2633 ft 181 kts 300°
2026-04-25 15:16 31.94996 34.99034 2146 ft 171 kts 301°
2026-04-25 15:17 31.96162 34.96788 1670 ft 151 kts 301°
2026-04-25 15:17 31.96711 34.95731 1470 ft 153 kts 301°
2026-04-25 15:17 31.97266 34.94663 1257 ft 154 kts 301°
2026-04-25 15:18 31.97843 34.93588 1004 ft 153 kts 302°
2026-04-25 15:18 31.98950 34.91451 616 ft 154 kts 301°
2026-04-25 15:18 31.99508 34.90378 380 ft 153 kts 302°
2026-04-25 15:19 32.00055 34.89316 145 ft 151 kts 302°
2026-04-25 15:19 32.00239 34.88963 119 ft 145 kts 301°
2026-04-25 15:19 32.00803 34.87870 118 ft 50 kts 302°
2026-04-25 15:19 32.00974 34.87541 119 ft 44 kts 301°
2026-04-25 15:20 32.01056 34.87272 120 ft 27 kts 276°
2026-04-25 15:20 32.01062 34.87093 119 ft 18 kts 261°
2026-04-25 15:20 32.00998 34.87077 115 ft 10 kts 132°
2026-04-25 15:20 32.00959 34.87145 118 ft 10 kts 121°
2026-04-25 15:21 32.00923 34.87212 118 ft 10 kts 122°
2026-04-25 15:21 32.00887 34.87280 116 ft 10 kts 121°
2026-04-25 15:21 32.00831 34.87391 119 ft 23 kts 122°
2026-04-25 15:21 32.00748 34.87549 116 ft 20 kts 121°
2026-04-25 15:22 32.00678 34.87684 117 ft 19 kts 122°
2026-04-25 15:22 32.00610 34.87814 119 ft 18 kts 122°
2026-04-25 15:22 32.00531 34.87872 119 ft 14 kts 197°
2026-04-25 15:22 32.00447 34.87817 117 ft 13 kts 212°
2026-04-25 15:23 32.00378 34.87757 117 ft 12 kts 237°
2026-04-25 15:23 32.00370 34.87670 118 ft 8 kts 271°
2026-04-25 15:23 32.00370 34.87644 119 ft 1 kts 272°
2026-04-25 15:23 32.00370 34.87641 119 ft 0 kts 272°